Location: Moonridge Observatory
(39.2268°N, 77.7914°W)
Time: 01:19:22
(UTC-04:00)

CZ-2C R/B - Visible Passes

Search period start: 19 April 2014 00:00
Search period end: 29 April 2014 00:00
Orbit: 705 x 910 km, 98.1° (Epoch: 17 April)

Date Brightness Start Highest point End Pass type
(mag) Time Alt. Az. Time Alt. Az. Time Alt. Az.
19 Apr 5.4 03:42:15 10° ESE 03:45:29 19° ENE 03:48:44 10° NNE visible
19 Apr 3.1 05:20:33 10° S 05:25:03 43° W 05:29:36 10° NNW visible
20 Apr 5.9 03:20:14 10° ENE 03:21:20 11° ENE 03:22:27 10° NE visible
20 Apr 2.7 04:55:49 10° S 05:00:32 79° WSW 05:05:20 10° NNW visible
21 Apr 3.4 04:31:28 10° SSE 04:36:06 59° ENE 04:40:49 10° N visible
22 Apr 4.5 04:07:33 10° SE 04:11:46 33° ENE 04:16:03 10° N visible
22 Apr 4.0 05:48:01 10° SSW 05:51:44 23° W 05:55:31 10° NW visible
23 Apr 5.4 03:44:07 10° ESE 03:47:31 20° ENE 03:50:58 10° NNE visible
23 Apr 3.2 05:22:41 10° SSW 05:27:07 40° W 05:31:39 10° NNW visible
24 Apr 5.9 03:21:42 10° E 03:23:22 12° ENE 03:25:03 10° NE visible
24 Apr 2.7 04:57:53 10° S 05:02:35 73° WSW 05:07:25 10° NNW visible
25 Apr 3.3 04:33:29 10° SSE 04:38:09 63° ENE 04:42:57 10° N visible
26 Apr 4.4 04:09:30 10° SE 04:13:48 36° ENE 04:18:14 10° N visible
26 Apr 4.1 05:50:13 10° SW 05:53:49 22° W 05:57:31 10° NW visible
27 Apr 5.3 03:45:59 10° ESE 03:49:33 22° ENE 03:53:12 10° NNE visible
27 Apr 3.4 05:24:48 10° SSW 05:29:11 38° W 05:33:43 10° NNW visible
28 Apr 5.8 03:23:17 10° E 03:25:24 13° ENE 03:27:32 10° NE visible
28 Apr 2.8 04:59:56 10° S 05:04:39 68° WSW 05:09:32 10° NNW visible
